Regional Weather Roundup
Issued by NWS

Home | Current Version | Previous Version | Graphics & Text | Print | Product List | Glossary On
Versions: 1 2 3 4 5 6 7 8 9 10 11 12 13 14 15 16 17 18 19 20 21 22 23 24 25 26 27 28 29 30 31 32 33 34 35 36 37 38 39 40 41 42 43 44 45 46 47 48 49 50
000
ASUS43 KBIS 300320
RWRND

NORTH DAKOTA REGIONAL WEATHER ROUNDUP
NATIONAL WEATHER SERVICE BISMARCK ND
1000 PM CDT SUN MAR 29 2015

NOTE: "FAIR" INDICATES FEW OR NO CLOUDS BELOW 12,000 FEET WITH NO
SIGNIFICANT WEATHER AND/OR OBSTRUCTIONS TO VISIBILITY.


NDZ001>003-009>011-017-300400-
NORTHWEST NORTH DAKOTA

CITY           SKY/WX    TMP DP  RH WIND       PRES   REMARKS
WILLISTON      MOCLDY    49  34  56 SW9       29.90F
MINOT          PTCLDY    44  32  62 SE3       29.91F
MINOT AFB      PTCLDY    38  36  92 S6        29.90S
$$

NDZ018>021-031>035-040>046-300400-
SOUTHWEST NORTH DAKOTA

CITY           SKY/WX    TMP DP  RH WIND       PRES   REMARKS
BISMARCK       PTCLDY    43  28  55 CALM      29.97S
DICKINSON      MOCLDY    43  30  60 SW3       29.94F
GARRISON         N/A     42  31  64 SW3       29.93S
HETTINGER ARPT MOCLDY    39  29  67 CALM      29.99F
$$

NDZ004>008-012>016-024-026-027-054-300400-
NORTHEAST NORTH DAKOTA

CITY           SKY/WX    TMP DP  RH WIND       PRES   REMARKS
GRAND FORKS    PTCLDY    37  28  70 W9        29.90R
GRND FRKS AFB  CLEAR     39  29  68 NW8       29.91R
DEVILS LAKE    CLEAR     34  28  80 CALM      29.91S
$$

NDZ022-023-025-028>030-036>039-047>053-300400-
SOUTHEAST NORTH DAKOTA

CITY           SKY/WX    TMP DP  RH WIND       PRES   REMARKS
FARGO          CLOUDY    43  29  57 SW8       29.92S
JAMESTOWN      CLEAR     40  29  64 NW7       29.94R
$$



USA.gov is the U.S. government's official web portal to all federal, state and local government web resources and services.